Weather History for Duluth, MN

Change the Weather History Date:

Tuesday, May 21, 2013

  Actual Average Record
Temperature  
Mean Temperature 48 °F 53 °F  
Max Temperature 51 °F 64 °F 88 °F (1964)
Min Temperature 44 °F 42 °F 28 °F (1971)
Degree Days  
Heating Degree Days 17 12  
Month to date heating degree days 363 318  
Since 1 July heating degree days 9112 9157  
Cooling Degree Days 0 0  
Month to date cooling degree days 1 0  
Year to date cooling degree days 1 0  
Moisture  
Dew Point 43 °F    
Average Humidity 86    
Maximum Humidity 92    
Minimum Humidity 80    
Precipitation  
Precipitation 0.89 in 0.10 in 1.17 in (1877)
Month to date precipitation 2.31 2.14  
Year to date precipitation 11.94 7.83  
Snow  
Snow 0.00 in 0.00 in T in (1963)
Month to date snowfall T 0.4  
Since 1 July snowfall 129.4 86.1  
Snow Depth 0.00 in    
Sea Level Pressure  
Sea Level Pressure 29.74 in    
Wind  
Wind Speed 19 mph (ENE)    
Max Wind Speed 31 mph    
Max Gust Speed 40 mph    
Visibility 2 miles    
Events Fog , Rain    
T = Trace of Precipitation, MM = Missing Value Source: NWS Daily Summary

Daily Weather History Graph

Daily Weather History Graph

Search for Another Location

Airport:

Trip Planner

Search our weather history database for the weather conditions in past years. The results will help you decide how hot, cold, wet, or windy it might be!

Date:

Astronomy

May. 21, 2013 Rise Set
Actual Time 5:26 AM CDT 8:44 PM CDT
Civil Twilight 4:50 AM CDT 9:21 PM CDT
Nautical Twilight 4:02 AM CDT 10:09 PM CDT
Astronomical Twilight 3:01 AM CDT 11:11 PM CDT
Moon 4:46 PM CDT (5/21) 3:10 AM CDT (5/21)
Length of Visible Light 16h 31m
Length of Day
15h 17m
Waxing Gibbous, 84% of the Moon is Illuminated
May 21
Waxing Gibbous
May 24
Full
May 31
Last Quarter
Jun 8
New
Jun 16
First Quarter

Hourly Weather History & Observations

Time (CDT) Temp. Windchill Dew Point Humidity Pressure Visibility Wind Dir Wind Speed Gust Speed Precip Events Conditions
12:20 AM 44.6 °F 36.4 °F 42.8 °F 93% 29.70 in 0.2 mi East 20.7 mph 26.5 mph N/A Fog Fog
12:35 AM 44.6 °F 35.9 °F 42.8 °F 93% 29.69 in 0.5 mi East 23.0 mph 29.9 mph N/A Fog Fog
12:55 AM 45.0 °F 36.2 °F 43.0 °F 93% 29.72 in 0.5 mi East 24.2 mph 34.5 mph 0.01 in   Mist
1:55 AM 45.0 °F 38.2 °F 42.1 °F 90% 29.71 in 1.2 mi East 15.0 mph 27.6 mph N/A   Overcast
2:55 AM 45.0 °F 36.2 °F 42.1 °F 90% 29.68 in 1.8 mi ENE 24.2 mph 36.8 mph N/A   Overcast
3:06 AM 44.6 °F 36.4 °F 42.8 °F 93% 29.66 in 2.0 mi ENE 20.7 mph 33.4 mph N/A   Overcast
3:30 AM 44.6 °F 36.1 °F 42.8 °F 93% 29.66 in 1.5 mi ENE 21.9 mph 28.8 mph N/A   Overcast
3:55 AM 45.0 °F 38.2 °F 42.1 °F 90% 29.70 in 1.5 mi ENE 15.0 mph 23.0 mph N/A   Overcast
4:13 AM 44.6 °F 38.1 °F 42.8 °F 93% 29.68 in 2.0 mi ENE 13.8 mph 24.2 mph N/A   Overcast
4:55 AM 45.0 °F 37.1 °F 42.1 °F 90% 29.72 in 2.0 mi East 19.6 mph 27.6 mph N/A   Overcast
5:55 AM 45.0 °F 36.6 °F 42.1 °F 90% 29.71 in 2.5 mi ENE 21.9 mph 32.2 mph 0.01 in Rain Light Rain
6:17 AM 46.4 °F 38.7 °F 42.8 °F 87% 29.69 in 1.5 mi East 20.7 mph 34.5 mph 0.00 in Rain Light Rain
6:52 AM 44.6 °F 35.5 °F 42.8 °F 93% 29.69 in 1.0 mi ENE 25.3 mph 35.7 mph 0.02 in Rain Light Rain
6:55 AM 45.0 °F 36.0 °F 42.1 °F 90% 29.73 in 1.0 mi ENE 25.3 mph 35.7 mph 0.02 in Rain Light Rain
7:13 AM 44.6 °F 34.6 °F 41.0 °F 87% 29.69 in 0.8 mi ENE 31.1 mph 39.1 mph 0.07 in Rain Light Rain
7:55 AM 44.1 °F 36.8 °F 41.0 °F 89% 29.73 in 1.5 mi ENE 16.1 mph - 0.30 in Rain Rain
8:27 AM 44.6 °F 36.9 °F 41.0 °F 87% 29.69 in 3.0 mi ENE 18.4 mph 24.2 mph 0.17 in Rain Light Rain
8:55 AM 46.0 °F 39.3 °F 42.1 °F 86% 29.72 in 5.0 mi ENE 16.1 mph 24.2 mph 0.23 in Rain Light Rain
9:55 AM 46.0 °F 38.3 °F 42.1 °F 86% 29.73 in 5.0 mi ENE 20.7 mph 27.6 mph 0.10 in Rain Light Rain
10:55 AM 46.0 °F 38.0 °F 42.1 °F 86% 29.73 in 3.0 mi ENE 21.9 mph 31.1 mph 0.13 in Rain Light Rain
11:55 AM 46.9 °F - 43.0 °F 86% 29.73 in 3.0 mi ENE 25.3 mph 36.8 mph 0.03 in Rain Light Rain
12:55 PM 48.0 °F - 44.1 °F 86% 29.73 in 3.0 mi East 27.6 mph 38.0 mph 0.02 in Rain Light Rain
1:11 PM 48.2 °F - 44.6 °F 87% 29.71 in 3.0 mi ENE 26.5 mph 35.7 mph 0.00 in Rain Light Rain
1:55 PM 48.9 °F - 44.1 °F 83% 29.75 in 3.0 mi ENE 18.4 mph 27.6 mph 0.00 in   Overcast
2:55 PM 48.9 °F - 44.1 °F 83% 29.76 in 3.0 mi East 18.4 mph 31.1 mph N/A   Overcast
3:38 PM 48.2 °F - 44.6 °F 87% 29.74 in 3.0 mi ENE 13.8 mph 21.9 mph 0.00 in Rain Light Rain
3:55 PM 50.0 °F - 45.0 °F 83% 29.78 in 3.0 mi ENE 13.8 mph 23.0 mph 0.00 in   Light Drizzle
4:13 PM 50.0 °F - 44.6 °F 82% 29.74 in 3.0 mi ENE 16.1 mph 26.5 mph 0.00 in   Light Drizzle
4:55 PM 50.0 °F - 45.0 °F 83% 29.78 in 3.0 mi ENE 13.8 mph 23.0 mph 0.00 in   Light Drizzle
5:55 PM 50.0 °F - 44.1 °F 80% 29.79 in 3.0 mi ENE 15.0 mph 24.2 mph 0.00 in   Overcast
6:55 PM 48.9 °F - 44.1 °F 83% 29.80 in 3.0 mi ENE 17.3 mph 27.6 mph 0.00 in   Overcast
7:25 PM 48.2 °F - 44.6 °F 87% 29.77 in 3.0 mi ENE 15.0 mph - N/A   Overcast
7:38 PM 48.2 °F - 44.6 °F 87% 29.77 in 3.0 mi ENE 13.8 mph 23.0 mph N/A   Overcast
7:55 PM 48.0 °F - 44.1 °F 86% 29.81 in 3.0 mi ENE 18.4 mph 24.2 mph 0.00 in   Overcast
8:16 PM 48.2 °F - 42.8 °F 82% 29.77 in 3.0 mi ENE 17.3 mph 24.2 mph 0.00 in Rain Light Rain
8:26 PM 48.2 °F - 42.8 °F 82% 29.77 in 3.0 mi ENE 13.8 mph 23.0 mph 0.00 in   Light Drizzle
8:36 PM 48.2 °F - 42.8 °F 82% 29.77 in 3.0 mi ENE 13.8 mph 24.2 mph 0.00 in   Light Drizzle
8:55 PM 48.0 °F - 43.0 °F 83% 29.81 in 3.0 mi ENE 13.8 mph - 0.00 in   Light Drizzle
9:24 PM 46.4 °F 41.1 °F 44.6 °F 93% 29.80 in 2.5 mi ENE 11.5 mph - 0.01 in Rain Light Rain
9:55 PM 46.9 °F - 43.0 °F 86% 29.83 in 3.0 mi ENE 17.3 mph 26.5 mph 0.01 in Rain Light Rain
10:07 PM 46.4 °F 39.5 °F 42.8 °F 87% 29.80 in 2.5 mi ENE 17.3 mph 26.5 mph 0.01 in Rain Light Rain
10:55 PM 46.0 °F 38.0 °F 42.1 °F 86% 29.84 in 2.5 mi ENE 21.9 mph 28.8 mph 0.01 in   Light Drizzle
11:02 PM 46.4 °F 39.2 °F 42.8 °F 87% 29.80 in 3.0 mi ENE 18.4 mph 28.8 mph 0.01 in   Light Drizzle
11:16 PM 46.4 °F 38.3 °F 42.8 °F 87% 29.80 in 2.5 mi ENE 23.0 mph 29.9 mph 0.01 in   Light Drizzle
11:55 PM 46.0 °F 37.6 °F 42.1 °F 86% 29.84 in 2.5 mi ENE 24.2 mph 32.2 mph 0.02 in   Light Drizzle